Zurück zum Katalog

USA 478

AktivMilitärVLEO
NORAD 62547·PAYLOAD·🇺🇸 United States

Gestartet Jan 10, 2025 von Vandenberg Space Force Base

Loading…

Nächste Überflüge (nächste 24 Stunden)

TLE

VeraltetSource: Mike McCants

Epoche: Aug 26, 2026, 02:29 UTC

1 62547U 25005R   26238.10391666 0.00000000  00000-0  00000-0 0    02
2 62547  70.0167 241.5824 0003000 116.9938 243.0061 14.96713491    04

Verfolge USA 478 in Echtzeit mit AllMySat

Download on the App Store